Regional Weather Roundup
Issued by NWS

Home | Current Version | Previous Version | Text Only | Print | Product List | Glossary On
Versions: 1 2 3 4 5 6 7 8 9 10 11 12 13 14 15 16 17 18 19 20 21 22 23 24 25 26 27 28
000
ASUS46 KSEW 231510
RWRWA

WASHINGTON REGIONAL WEATHER ROUNDUP
NATIONAL WEATHER SERVICE SEATTLE WA
800 AM PDT THU MAR 23 2017

NOTE:"FAIR" INDICATES FEW OR NO CLOUDS BELOW 12,000 FEET WITH NO
SIGNIFICANT WEATHER AND/OR OBSTRUCTIONS TO VISIBILITY.

WAZ507-509-555>559-231600-
SEATTLE, TACOMA, EVERETT, AND VICINITY

CITY           SKY/WX    TMP DP  RH WIND       PRES   REMARKS
EVERETT        MOCLDY    42  37  82 SE14      30.06S
BOEING FIELD   CLOUDY    42  39  89 SE5       30.09S
RENTON         MOCLDY    42  38  85 SE3       30.09S
SEATAC AIRPORT MOCLDY    42  37  82 SE10      30.08S
JBLM-MCCHORD   CLOUDY    40  40  99 S6        30.09S
PUYALLUP         N/A     41  37  87 CALM      30.09S
BREMERTON      CLOUDY    39  39 100 SE3       30.11S
JBLM-FT LEWIS  CLOUDY    38  38 100 S3        30.08S
TACOMA NARROWS CLOUDY    42  38  85 S5        30.08S
$$

WAZ001-503-506-510-514-515-231600-
NORTH INTERIOR

CITY           SKY/WX    TMP DP  RH WIND       PRES   REMARKS
BELLINGHAM     CLOUDY    45  37  73 SE17G25   30.04S
FRIDAY HARBOR  CLOUDY    45  39  79 SE12      30.05S
EASTSOUND      MOCLDY    45  37  76 S10G17    30.02S
PORT ANGELES   MOCLDY    34  34 100 SW5       30.02S
EDIZ HOOK      CLOUDY    40  37  87 S5        30.03S
PORT TOWNSEND  FAIR      36  36 100 SE5       30.05S
NAS WHIDBEY    CLOUDY    46  37  71 SE15G21   30.08R
ARLINGTON      CLOUDY    45  32  61 SE12G18   30.10S
BURLINGTON     CLOUDY    45  37  76 SE9       30.07S
$$

WAZ020-022-039-040-504-511-512-231600-
SOUTHWEST INTERIOR

CITY           SKY/WX    TMP DP  RH WIND       PRES   REMARKS
SHELTON        CLOUDY    41  39  93 NE3       30.05F
OLYMPIA        PTCLDY    38  38 100 S3        30.08F
CHEHALIS       FAIR      39  39 100 S5        30.09S
KELSO          PTCLDY    43  38  82 SE3       30.11S
VANCOUVER      CLOUDY    44  40  85 E7        30.12R
SCAPPOOSE, OR  CLOUDY    40  38  93 CALM      30.11S
PORTLAND, OR   MOCLDY    43  38  82 E8        30.13R
$$

WAZ021-516-517-231600-
WASHINGTON COAST

CITY           SKY/WX    TMP DP  RH WIND       PRES   REMARKS
FORKS          CLOUDY    42  41  96 SE6       29.99F
HOQUIAM        CLOUDY    42  42 100 E10       30.04F
ASTORIA, OR    MOCLDY    41  38  89 SE6       30.05S
$$

WAZ019-023-024-040-567>569-231600-
CASCADE MOUNTAINS AND COLUMBIA GORGE

CITY           SKY/WX    TMP DP  RH WIND       PRES   REMARKS
STAMPEDE PASS  NOT AVBL
TROUTDALE, OR  CLOUDY    43  39  86 E3        30.13R
THE DALLES, OR CLEAR     36  33  89 E5        30.13S
$$

WAZ026-027-041>044-520-521-231600-
EAST SLOPES

CITY           SKY/WX    TMP DP  RH WIND       PRES   REMARKS
OMAK           PTSUNNY   33  29  85 CALM      30.03R
WENATCHEE      PTCLDY    35  29  78 CALM      30.05R
ELLENSBURG     PTCLDY    35  28  75 CALM      30.05R
YAKIMA         CLEAR     33  28  81 NW5       30.09R
SUNNYSIDE ARPT SUNNY     30  28  91 CALM      30.10R
$$

WAZ028-034-035-231600-
COLUMBIA BASIN

CITY           SKY/WX    TMP DP  RH WIND       PRES   REMARKS
EPHRATA        SUNNY     34  25  69 CALM      30.04R
MOSES LAKE     SUNNY     34  28  79 E5        30.05R
PASCO          SUNNY     40  32  73 S5        30.12S
HERMISTON, OR  SUNNY     39  33  79 S5        30.11S
$$

WAZ036>038-231600-
NORTHEAST WASHINGTON

CITY           SKY/WX    TMP DP  RH WIND       PRES   REMARKS
SPOKANE GEIGER MOSUNNY   34  31  88 S13       30.02R WCI  25
SPOKANE FELTS  MOSUNNY   38  33  82 S6        30.05
FAIRCHILD AFB  MOSUNNY   33  33 100 SW10      30.01S WCI  25
COEURDALENE,ID MOSUNNY   37  33  85 CALM      30.04S
DEER PARK      CLOUDY    36  32  85 S10       30.03R
$$

WAZ029>033-231600-
SOUTHEAST WASHINGTON

CITY           SKY/WX    TMP DP  RH WIND       PRES   REMARKS
PULLMAN        SUNNY     37  30  75 SW5       30.08R
LEWISTON, ID   FOG       37  36  96 NW5       30.09R VSB<1/4
WALLA WALLA    SUNNY     41  34  76 S9        30.11R
PENDLETON, OR  SUNNY     36  32  85 S6        30.10R
$$




USA.gov is the U.S. government's official web portal to all federal, state and local government web resources and services.